DECAYED

STARLINK-1467, 45733 (Decayed)

Orbit data source: Space-Track

STARLINK-1467, 45733 was a payload satellite owned by SpaceX/Seattle (US) in LEO that was launched on Sat, 13 Jun 2020 UTC via an FALCON 9 launch vehicle from the Air Force Eastern Test Range (AFETR). Payload-class satellites include a variety of spacecraft equipped with specific instruments for various scientific and technological missions. These include communications satellites like Starlink; space stations such as the ISS; scientific satellites like the Hubble; Earth observation satellites from companies like Planet Labs, Umbra, and HawkEye 360; GPS; miniature CubeSats for education and research; and military/defense satellites.

Not visible in the next 10 days
Identifier
45733, 2020-038D
Orbit
Decayed
Last TLE update
7 months ago
Origin
Manufacturer
SpaceX/Seattle
Mission
Decayed Commercial Communications
Bus & Motor
STARLINK, Unknown motor
Mass
260 kg wet, ~248 kg dry
Launch date (UTC)
2020-06-13 (5 years ago)
Launch vehicle
FALCON 9
Launch site
Air Force Eastern Test Range (AFETR)
Object type
Payload
Rocket body
Debris
Shape & HBR
Box + 1 Pan, 8.86 m
Radar Cross Section
13.562 m², Large (>1 m²)

Expand to show TLE details & history

TLE from 7 months ago
0 STARLINK-1467
1 45733U 20038D   24328.74756175  .21316887  12646-4  41283-3 0  9996
2 45733  53.0416  57.2505 0005261 359.0237 143.8585 16.47005152248212
Epoch: 2024-11-23T17:56Z
TLE epoch observation values (Epoch: 2024-11-23T17:56:29.335Z)
Latitude
28.89595°
Longitude
-119.45446°
Altitude
151.526 km
Speed
7.818 km/s
True Right ascension
14h 11m 27s
True Declination
28° 44' 14"
Sunlit
Object was in daylight at epoch
Visualization orbit readout
Visualization observer readout
Orbital elements
Apogee altitude
150.956 km
Perigee altitude
144.09 km
Semi-major axis
6,525.66 km
Eccentricity
0.00053
Inclination
53.0416°
RAAN
57.2505°
Arg. of periapsis
359.0237°
True anomaly
Unknown
Mean anomaly
143.8585°
Eccentric anomaly
Unknown
Mean motion
4.11724 °/min
Orbital period
87.44 mins
BSTAR
0.00041283
Loading maneuver chart data...
Loading SW <> Apogee altitude chart data...

STARLINK-1467 Visibility

Observer location: undefined°, undefined°

This satellite is decayed
Span
Click to sort rows by Start time (UTC) header in descending order
Start Az.
Max El. time (UTC)
Max El. Az.
Max El.
End time (UTC)
End Az.
|